Weather History for Amsterdam Airport Schiphol, Netherlands

Change the Weather History Date:

Saturday, August 24, 2013

  Actual Average Record
Temperature  
Mean Temperature 68 °F -  
Max Temperature 75 °F 65 °F - ()
Min Temperature 60 °F 52 °F - ()
Cooling Degree Days 2    
Growing Degree Days 18 (Base 50)    
Moisture  
Dew Point 59 °F    
Average Humidity 75    
Maximum Humidity 100    
Minimum Humidity 49    
Precipitation  
Precipitation 0.01 in - - ()
Sea Level Pressure  
Sea Level Pressure 29.85 in    
Wind  
Wind Speed 9 mph ()    
Max Wind Speed 15 mph    
Max Gust Speed -    
Visibility 6.9 miles    
Events Rain    
T = Trace of Precipitation, MM = Missing Value Source: Averaged Metar Reports

Daily Weather History Graph

Daily Weather History Graph

Search for Another Location

Airport:

Trip Planner

Search our weather history database for the weather conditions in past years. The results will help you decide how hot, cold, wet, or windy it might be!

Date:

Astronomy

Aug. 24, 2013 Rise Set
Actual Time 6:38 AM CEST 8:46 PM CEST
Civil Twilight 6:02 AM CEST 9:22 PM CEST
Nautical Twilight 5:15 AM CEST 10:08 PM CEST
Astronomical Twilight 4:22 AM CEST 11:01 PM CEST
Moon 9:51 PM CEST (8/24) 10:58 AM CEST (8/24)
Length of Visible Light 15h 20m
Length of Day
14h 07m
Waning Gibbous, 86% of the Moon is Illuminated
Aug 24
Waning Gibbous
Aug 28
Last Quarter
Sep 5
New
Sep 12
First Quarter
Sep 19
Full

Hourly Weather History & Observations

Time (CEST) Temp. Dew Point Humidity Pressure Visibility Wind Dir Wind Speed Gust Speed Precip Events Conditions
12:25 AM 66.2 °F 59.0 °F 78% 29.95 in 6.2 mi East 9.2 mph - N/A   Partly Cloudy
12:55 AM 66.2 °F 59.0 °F 78% 29.92 in 6.2 mi East 9.2 mph - N/A   Partly Cloudy
1:25 AM 66.2 °F 59.0 °F 78% 29.92 in - East 9.2 mph - N/A   Clear
1:55 AM 66.2 °F 59.0 °F 78% 29.92 in 6.2 mi East 10.4 mph - N/A   Partly Cloudy
2:00 AM 65 °F 58 °F 71% 29.93 in 11 mi East 8.9 mph - -   Partly Cloudy
2:25 AM 64.4 °F 57.2 °F 77% 29.92 in 6.2 mi East 8.1 mph - N/A   Partly Cloudy
2:55 AM 64.4 °F 57.2 °F 77% 29.89 in - East 8.1 mph - N/A   Clear
3:25 AM 64.4 °F 57.2 °F 77% 29.89 in - ESE 10.4 mph - N/A   Clear
3:55 AM 64.4 °F 57.2 °F 77% 29.89 in - ESE 9.2 mph - N/A   Clear
4:25 AM 64.4 °F 57.2 °F 77% 29.89 in - ESE 8.1 mph - N/A   Clear
4:55 AM 64.4 °F 57.2 °F 77% 29.89 in - ESE 8.1 mph - N/A   Clear
5:00 AM 64 °F 57 °F 70% 29.89 in 11 mi ESE 8.9 mph - -   Overcast
5:25 AM 64.4 °F 57.2 °F 77% 29.86 in - ESE 8.1 mph - N/A   Clear
5:55 AM 64.4 °F 55.4 °F 73% 29.86 in - ESE 9.2 mph - N/A   Clear
6:25 AM 64.4 °F 55.4 °F 73% 29.86 in - ESE 11.5 mph - N/A   Clear
6:55 AM 64.4 °F 55.4 °F 73% 29.86 in - ESE 11.5 mph - N/A   Clear
7:25 AM 64.4 °F 55.4 °F 73% 29.86 in - ESE 12.7 mph - N/A   Clear
7:55 AM 64.4 °F 55.4 °F 73% 29.86 in - ESE 12.7 mph - N/A   Clear
8:25 AM 64.4 °F 55.4 °F 73% 29.86 in - ESE 11.5 mph - N/A   Clear
8:55 AM 64.4 °F 55.4 °F 73% 29.83 in - East 10.4 mph - N/A   Clear
9:25 AM 66.2 °F 55.4 °F 68% 29.83 in - East 12.7 mph - N/A   Clear
9:55 AM 68.0 °F 57.2 °F 68% 29.83 in - East 12.7 mph - N/A   Clear
10:25 AM 68.0 °F 57.2 °F 68% 29.83 in - ESE 15.0 mph - N/A   Clear
10:55 AM 68.0 °F 57.2 °F 68% 29.83 in - ESE 11.5 mph - N/A   Clear
11:00 AM 69 °F 57 °F 58% 29.86 in 14 mi SE 11.2 mph - -   Mostly Cloudy
11:25 AM 69.8 °F 57.2 °F 64% 29.83 in - SE 12.7 mph - N/A   Clear
11:55 AM 71.6 °F 59.0 °F 64% 29.83 in - ESE 9.2 mph - N/A   Clear
12:25 PM 71.6 °F 59.0 °F 64% 29.83 in - SE 11.5 mph - N/A   Clear
12:55 PM 71.6 °F 59.0 °F 64% 29.83 in - ESE 12.7 mph - N/A   Clear
1:25 PM 71.6 °F 57.2 °F 60% 29.83 in - SE 9.2 mph - N/A   Clear
1:55 PM 73.4 °F 59.0 °F 61% 29.83 in 6.2 mi ESE 10.4 mph - N/A   Partly Cloudy
2:00 PM 74 °F 59 °F 49% 29.84 in 11 mi ESE 11.2 mph - -   Partly Cloudy
2:25 PM 73.4 °F 59.0 °F 61% 29.83 in - ESE 10.4 mph - N/A   Clear
2:55 PM 73.4 °F 59.0 °F 61% 29.83 in - SE 9.2 mph - N/A   Clear
3:25 PM 73.4 °F 59.0 °F 61% 29.80 in - SE 9.2 mph - N/A   Clear
3:55 PM 73.4 °F 59.0 °F 61% 29.80 in - SE 9.2 mph - N/A   Clear
4:25 PM 73.4 °F 59.0 °F 61% 29.80 in 6.2 mi SE 9.2 mph - N/A   Partly Cloudy
4:55 PM 73.4 °F 59.0 °F 61% 29.80 in 6.2 mi SSE 9.2 mph - N/A   Partly Cloudy
5:00 PM 73 °F 60 °F 54% 29.83 in 10 mi SSE 8.9 mph - -   Overcast
5:25 PM 71.6 °F 59.0 °F 64% 29.80 in 6.2 mi South 12.7 mph - N/A Rain Light Rain
5:55 PM 69.8 °F 60.8 °F 73% 29.80 in 6.2 mi South 10.4 mph - N/A   Partly Cloudy
6:25 PM 68.0 °F 60.8 °F 78% 29.80 in 6.2 mi SSW 11.5 mph - N/A   Partly Cloudy
6:55 PM 68.0 °F 64.4 °F 88% 29.80 in 5.6 mi South 11.5 mph - N/A Rain Light Rain
7:25 PM 66.2 °F 64.4 °F 94% 29.80 in 3.7 mi South 9.2 mph - N/A Rain Light Rain
7:55 PM 64.4 °F 60.8 °F 88% 29.83 in 5.0 mi South 10.4 mph - N/A Rain Light Rain
8:00 PM 65 °F 62 °F 86% 29.83 in 6 mi South 11.2 mph - - Rain Drizzle
8:25 PM 62.6 °F 60.8 °F 94% 29.83 in 5.6 mi South 9.2 mph - N/A Rain Light Rain
8:55 PM 62.6 °F 60.8 °F 94% 29.83 in 6.2 mi SSE 4.6 mph - N/A Rain Light Rain
9:25 PM 60.8 °F 60.8 °F 100% 29.80 in - East 3.5 mph - N/A   Clear
9:55 PM 62.6 °F 60.8 °F 94% 29.80 in - ENE 2.3 mph - N/A   Clear
10:25 PM 60.8 °F 60.8 °F 100% 29.80 in - East 3.5 mph - N/A   Clear
10:55 PM 62.6 °F 60.8 °F 94% 29.83 in - ESE 4.6 mph - N/A   Clear
11:00 PM 62 °F 61 °F 95% 29.83 in 5 mi ESE 4.5 mph - -   Mist
11:25 PM 62.6 °F 60.8 °F 94% 29.83 in 6.2 mi East 4.6 mph - N/A   Partly Cloudy
11:55 PM 62.6 °F 60.8 °F 94% 29.83 in 4.3 mi ESE 6.9 mph - N/A   Mostly Cloudy